Home > Time Zones > World Clock > Weather > Japan > Kyoto > Past weeks

Flag for Japan Weather past 2 weeks in Kyoto, Japan

Now
68 °F

Mild.


Feels Like: 68 °F
Forecast: 52 / 84 °F
Wind: 5 mph from North

Location: Osaka

Current Time: May 25, 2015 at 2:36:04 AM

Latest Report: May 25, 2015 at 2:00 AM


Visibility: N/A

Pressure: 29.77 "Hg

Humidity: 72%

Dew point: 58 °F

Location of KyotoLocation

Historic Weather in Kyoto — Graph

°F

Kyoto temperature yesterday

Maximum temperature yesterday: 82 °F (at 3:00 PM)
Minimum temperature yesterday: 67 °F (at 4:00 AM)
Average temperature yesterday: 74 °F

Past Weeks' High & Low Weather Summary

 TemperatureHumidityPressure
High82 °F (May 20, 1:00 PM)97% (May 16, 3:00 AM)30.20 "Hg (May 16, 3:00 AM)
Low54 °F (May 11, 5:00 AM)22% (May 11, 1:00 PM)29.54 "Hg (May 12, 7:00 PM)
Average69 °F60%29.85 "Hg
* Reported May 10 1:00 AM — May 25 1:00 AM, Kyoto, Weather by CustomWeather, © 2015

Note: Actual official high and low records may vary slightly from our data, if they occured in-between our weather recording intervals... More about our weather records

Advertising

Kyoto weather history for previous 24 hours

 ConditionsComfort  
Time TempWeatherWind HumidityBarometerVisibility
1:00 AM
Mon, May 25
70 °FMild.2 mph67%29.78 "HgN/A
12:00 AM70 °FMild.3 mph68%29.78 "HgN/A
11:00 PM
Sun, May 24
70 °FMild.3 mph68%29.78 "HgN/A
10:00 PM71 °FMild.5 mph64%29.77 "HgN/A
9:00 PM74 °FPassing clouds.5 mph61%29.75 "Hg19 mi
8:00 PM74 °FMild.6 mph53%29.73 "HgN/A
7:00 PM77 °FWarm.5 mph47%29.71 "HgN/A
6:00 PM79 °FOvercast.5 mph42%29.70 "Hg22 mi
5:00 PM80 °FWarm.8 mph40%29.69 "HgN/A
4:00 PM80 °FPleasantly warm.6 mph39%29.69 "HgN/A
3:00 PM82 °FPartly sunny.8 mph31%29.70 "Hg25 mi
2:00 PM81 °FWarm.7 mph42%29.70 "HgN/A
1:00 PM82 °FPleasantly warm.8 mph34%29.72 "HgN/A
11:00 AM78 °FWarm.5 mph52%29.77 "HgN/A
10:00 AM75 °FMild.6 mph52%29.79 "HgN/A
9:00 AM71 °FOvercast.3 mph56%29.81 "Hg16 mi
8:00 AM70 °FMild.3 mph54%29.83 "HgN/A
7:00 AM69 °FMild.3 mph58%29.83 "HgN/A
5:00 AM67 °FMild.3 mph60%29.83 "HgN/A
4:00 AM67 °FMild.5 mph63%29.83 "HgN/A
3:00 AM67 °FOvercast.3 mph64%29.83 "Hg12 mi
2:00 AM67 °FMild.5 mph64%29.84 "HgN/A
Weather by CustomWeather, © 2015

See weather overviewHow to use our weather pages